Directory Listing
Index of /dewikivoyage/20260101/

Index of /dewikivoyage/20260101/


../
dewikivoyage-20260101-all-titles-in-ns0.gz         02-Jan-2026 00:56    175K
dewikivoyage-20260101-all-titles.gz                02-Jan-2026 00:56    689K
dewikivoyage-20260101-babel.sql.gz                 01-Jan-2026 13:34    2157
dewikivoyage-20260101-category.sql.gz              01-Jan-2026 13:34     76K
dewikivoyage-20260101-categorylinks.sql.gz         01-Jan-2026 13:34      3M
dewikivoyage-20260101-change_tag.sql.gz            01-Jan-2026 13:34      3M
dewikivoyage-20260101-change_tag_def.sql.gz        01-Jan-2026 13:34    1416
dewikivoyage-20260101-externallinks.sql.gz         01-Jan-2026 13:34      6M
dewikivoyage-20260101-geo_tags.sql.gz              01-Jan-2026 13:34    450K
dewikivoyage-20260101-image.sql.gz                 01-Jan-2026 13:34    105K
dewikivoyage-20260101-imagelinks.sql.gz            01-Jan-2026 13:34      4M
dewikivoyage-20260101-iwlinks.sql.gz               01-Jan-2026 13:34      3M
dewikivoyage-20260101-langlinks.sql.gz             01-Jan-2026 13:34    589K
dewikivoyage-20260101-linktarget.sql.gz            01-Jan-2026 13:34      1M
dewikivoyage-20260101-md5sums.json                 02-Jan-2026 02:32    3144
dewikivoyage-20260101-md5sums.txt                  02-Jan-2026 02:32    2934
dewikivoyage-20260101-page.sql.gz                  01-Jan-2026 13:34      3M
dewikivoyage-20260101-page_props.sql.gz            01-Jan-2026 13:34      1M
dewikivoyage-20260101-page_restrictions.sql.gz     01-Jan-2026 13:34     33K
dewikivoyage-20260101-pagelinks.sql.gz             01-Jan-2026 13:34      4M
dewikivoyage-20260101-pages-articles-multistrea..> 02-Jan-2026 00:53    427K
dewikivoyage-20260101-pages-articles-multistrea..> 02-Jan-2026 00:53     69M
dewikivoyage-20260101-pages-articles.xml.bz2       02-Jan-2026 00:51     67M
dewikivoyage-20260101-pages-logging.xml.gz         02-Jan-2026 00:57      9M
dewikivoyage-20260101-pages-logging.xml.gz.inprog  02-Jan-2026 00:57      9M
dewikivoyage-20260101-pages-meta-current.xml.bz2   02-Jan-2026 00:55     80M
dewikivoyage-20260101-pages-meta-current.xml.bz..> 02-Jan-2026 00:54     31M
dewikivoyage-20260101-pages-meta-history.xml.7z    02-Jan-2026 02:32    309M
dewikivoyage-20260101-pages-meta-history.xml.bz2   02-Jan-2026 02:18      1G
dewikivoyage-20260101-protected_titles.sql.gz      01-Jan-2026 13:34    3253
dewikivoyage-20260101-redirect.sql.gz              01-Jan-2026 13:34    134K
dewikivoyage-20260101-runsettings.txt              01-Jan-2026 10:26      28
dewikivoyage-20260101-sha1sums.json                02-Jan-2026 02:32    3449
dewikivoyage-20260101-sha1sums.txt                 02-Jan-2026 02:32    3238
dewikivoyage-20260101-site_stats.sql.gz            01-Jan-2026 13:34     840
dewikivoyage-20260101-siteinfo-namespaces.json.gz  02-Jan-2026 00:56    6756
dewikivoyage-20260101-siteinfo2-namespacesv2.js..> 02-Jan-2026 00:56    6991
dewikivoyage-20260101-sites.sql.gz                 01-Jan-2026 13:34     23K
dewikivoyage-20260101-stub-articles.xml.gz         01-Jan-2026 10:51      5M
dewikivoyage-20260101-stub-meta-current.xml.gz     01-Jan-2026 10:51     10M
dewikivoyage-20260101-stub-meta-history.xml.gz     01-Jan-2026 10:51    126M
dewikivoyage-20260101-templatelinks.sql.gz         01-Jan-2026 13:34      4M
dewikivoyage-20260101-user_former_groups.sql.gz    01-Jan-2026 13:34     917
dewikivoyage-20260101-user_groups.sql.gz           01-Jan-2026 13:34    1963
dewikivoyage-20260101-wbc_entity_usage.sql.gz      01-Jan-2026 13:34     15M
dumpruninfo.json                                   02-Jan-2026 02:32    2562
dumpruninfo.txt                                    02-Jan-2026 02:32    2202
dumpspecialfiles.json                              02-Jan-2026 02:32     133
dumpstatus.json                                    02-Jan-2026 02:32     12K
md5sums-dewikivoyage-20260101-all-titles-in-ns0..> 02-Jan-2026 00:56      77
md5sums-dewikivoyage-20260101-all-titles.gz.txt    02-Jan-2026 00:56      70
md5sums-dewikivoyage-20260101-babel.sql.gz.txt     01-Jan-2026 13:34      69
md5sums-dewikivoyage-20260101-category.sql.gz.txt  01-Jan-2026 13:34      72
md5sums-dewikivoyage-20260101-categorylinks.sql..> 01-Jan-2026 13:34      77
md5sums-dewikivoyage-20260101-change_tag.sql.gz..> 01-Jan-2026 13:34      74
md5sums-dewikivoyage-20260101-change_tag_def.sq..> 01-Jan-2026 13:34      78
md5sums-dewikivoyage-20260101-externallinks.sql..> 01-Jan-2026 13:34      77
md5sums-dewikivoyage-20260101-geo_tags.sql.gz.txt  01-Jan-2026 13:34      72
md5sums-dewikivoyage-20260101-image.sql.gz.txt     01-Jan-2026 13:34      69
md5sums-dewikivoyage-20260101-imagelinks.sql.gz..> 01-Jan-2026 13:34      74
md5sums-dewikivoyage-20260101-iwlinks.sql.gz.txt   01-Jan-2026 13:34      71
md5sums-dewikivoyage-20260101-langlinks.sql.gz.txt 01-Jan-2026 13:34      73
md5sums-dewikivoyage-20260101-linktarget.sql.gz..> 01-Jan-2026 13:34      74
md5sums-dewikivoyage-20260101-page.sql.gz.txt      01-Jan-2026 13:34      68
md5sums-dewikivoyage-20260101-page_props.sql.gz..> 01-Jan-2026 13:34      74
md5sums-dewikivoyage-20260101-page_restrictions..> 01-Jan-2026 13:34      81
md5sums-dewikivoyage-20260101-pagelinks.sql.gz.txt 01-Jan-2026 13:34      73
md5sums-dewikivoyage-20260101-pages-articles-mu..> 02-Jan-2026 00:53      97
md5sums-dewikivoyage-20260101-pages-articles-mu..> 02-Jan-2026 00:53      91
md5sums-dewikivoyage-20260101-pages-articles.xm..> 02-Jan-2026 00:51      79
md5sums-dewikivoyage-20260101-pages-logging.xml..> 02-Jan-2026 00:57      77
md5sums-dewikivoyage-20260101-pages-meta-curren..> 02-Jan-2026 00:55      83
md5sums-dewikivoyage-20260101-pages-meta-histor..> 02-Jan-2026 02:32      82
md5sums-dewikivoyage-20260101-pages-meta-histor..> 02-Jan-2026 02:18      83
md5sums-dewikivoyage-20260101-protected_titles...> 01-Jan-2026 13:34      80
md5sums-dewikivoyage-20260101-redirect.sql.gz.txt  01-Jan-2026 13:34      72
md5sums-dewikivoyage-20260101-site_stats.sql.gz..> 01-Jan-2026 13:34      74
md5sums-dewikivoyage-20260101-siteinfo-namespac..> 02-Jan-2026 00:56      84
md5sums-dewikivoyage-20260101-siteinfo2-namespa..> 02-Jan-2026 00:56      87
md5sums-dewikivoyage-20260101-sites.sql.gz.txt     01-Jan-2026 13:34      69
md5sums-dewikivoyage-20260101-stub-articles.xml..> 01-Jan-2026 10:51      77
md5sums-dewikivoyage-20260101-stub-meta-current..> 01-Jan-2026 10:51      81
md5sums-dewikivoyage-20260101-stub-meta-history..> 01-Jan-2026 10:51      81
md5sums-dewikivoyage-20260101-templatelinks.sql..> 01-Jan-2026 13:34      77
md5sums-dewikivoyage-20260101-user_former_group..> 01-Jan-2026 13:34      82
md5sums-dewikivoyage-20260101-user_groups.sql.g..> 01-Jan-2026 13:34      75
md5sums-dewikivoyage-20260101-wbc_entity_usage...> 01-Jan-2026 13:34      80
report.json                                        02-Jan-2026 02:32    6474
sha1sums-dewikivoyage-20260101-all-titles-in-ns..> 02-Jan-2026 00:56      85
sha1sums-dewikivoyage-20260101-all-titles.gz.txt   02-Jan-2026 00:56      78
sha1sums-dewikivoyage-20260101-babel.sql.gz.txt    01-Jan-2026 13:34      77
sha1sums-dewikivoyage-20260101-category.sql.gz.txt 01-Jan-2026 13:34      80
sha1sums-dewikivoyage-20260101-categorylinks.sq..> 01-Jan-2026 13:34      85
sha1sums-dewikivoyage-20260101-change_tag.sql.g..> 01-Jan-2026 13:34      82
sha1sums-dewikivoyage-20260101-change_tag_def.s..> 01-Jan-2026 13:34      86
sha1sums-dewikivoyage-20260101-externallinks.sq..> 01-Jan-2026 13:34      85
sha1sums-dewikivoyage-20260101-geo_tags.sql.gz.txt 01-Jan-2026 13:34      80
sha1sums-dewikivoyage-20260101-image.sql.gz.txt    01-Jan-2026 13:34      77
sha1sums-dewikivoyage-20260101-imagelinks.sql.g..> 01-Jan-2026 13:34      82
sha1sums-dewikivoyage-20260101-iwlinks.sql.gz.txt  01-Jan-2026 13:34      79
sha1sums-dewikivoyage-20260101-langlinks.sql.gz..> 01-Jan-2026 13:34      81
sha1sums-dewikivoyage-20260101-linktarget.sql.g..> 01-Jan-2026 13:34      82
sha1sums-dewikivoyage-20260101-page.sql.gz.txt     01-Jan-2026 13:34      76
sha1sums-dewikivoyage-20260101-page_props.sql.g..> 01-Jan-2026 13:34      82
sha1sums-dewikivoyage-20260101-page_restriction..> 01-Jan-2026 13:34      89
sha1sums-dewikivoyage-20260101-pagelinks.sql.gz..> 01-Jan-2026 13:34      81
sha1sums-dewikivoyage-20260101-pages-articles-m..> 02-Jan-2026 00:53     105
sha1sums-dewikivoyage-20260101-pages-articles-m..> 02-Jan-2026 00:53      99
sha1sums-dewikivoyage-20260101-pages-articles.x..> 02-Jan-2026 00:51      87
sha1sums-dewikivoyage-20260101-pages-logging.xm..> 02-Jan-2026 00:57      85
sha1sums-dewikivoyage-20260101-pages-meta-curre..> 02-Jan-2026 00:55      91
sha1sums-dewikivoyage-20260101-pages-meta-histo..> 02-Jan-2026 02:32      90
sha1sums-dewikivoyage-20260101-pages-meta-histo..> 02-Jan-2026 02:18      91
sha1sums-dewikivoyage-20260101-protected_titles..> 01-Jan-2026 13:34      88
sha1sums-dewikivoyage-20260101-redirect.sql.gz.txt 01-Jan-2026 13:34      80
sha1sums-dewikivoyage-20260101-site_stats.sql.g..> 01-Jan-2026 13:34      82
sha1sums-dewikivoyage-20260101-siteinfo-namespa..> 02-Jan-2026 00:56      92
sha1sums-dewikivoyage-20260101-siteinfo2-namesp..> 02-Jan-2026 00:56      95
sha1sums-dewikivoyage-20260101-sites.sql.gz.txt    01-Jan-2026 13:34      77
sha1sums-dewikivoyage-20260101-stub-articles.xm..> 01-Jan-2026 10:51      85
sha1sums-dewikivoyage-20260101-stub-meta-curren..> 01-Jan-2026 10:51      89
sha1sums-dewikivoyage-20260101-stub-meta-histor..> 01-Jan-2026 10:51      89
sha1sums-dewikivoyage-20260101-templatelinks.sq..> 01-Jan-2026 13:34      85
sha1sums-dewikivoyage-20260101-user_former_grou..> 01-Jan-2026 13:34      90
sha1sums-dewikivoyage-20260101-user_groups.sql...> 01-Jan-2026 13:34      83
sha1sums-dewikivoyage-20260101-wbc_entity_usage..> 01-Jan-2026 13:34      88
status.html                                        02-Jan-2026 02:32     119
tableinfo.json                                     01-Jan-2026 08:23    1470